Chillicothe, MO

7:57 PM CST on December 04, 2016 (GMT -0600)
Chillicothe

Weather History for KCDJ - October, 2013

Change the Weather History Date:

Thursday, October 24, 2013

  Actual Average (KIRK) Record (KIRK)
Temperature  
Mean Temperature 39 °F 50 °F  
Max Temperature 51 °F 61 °F 85 °F (1927)
Min Temperature 27 °F 40 °F 21 °F (2006)
Degree Days  
Heating Degree Days 26 15  
Month to date heating degree days 267  
Since 1 July heating degree days 374  
Cooling Degree Days 0 0  
Month to date cooling degree days 10  
Year to date cooling degree days 937  
Moisture  
Dew Point 28 °F    
Average Humidity 64    
Maximum Humidity 89    
Minimum Humidity 38    
Precipitation  
Precipitation 0.00 in 0.10 in 0.90 in (1947)
Month to date precipitation 2.66  
Year to date precipitation 34.18  
Sea Level Pressure  
Sea Level Pressure 30.37 in    
Wind  
Wind Speed 3 mph (NNW)    
Max Wind Speed 9 mph    
Max Gust Speed 21 mph    
T = Trace of Precipitation, MM = Missing Value Source: NWS Daily Summary

Daily Weather History Graph

Daily Weather History Graph

Search for Another Location

Airport or City:

Trip Planner

Search our weather history database for the weather conditions in past years. The results will help you decide how hot, cold, wet, or windy it might be!

Date:

Astronomy

Oct. 24, 2013 Rise Set
Actual Time 7:34 AM CDT 6:21 PM CDT
Civil Twilight 7:06 AM CDT 6:49 PM CDT
Nautical Twilight 6:35 AM CDT 7:20 PM CDT
Astronomical Twilight 6:03 AM CDT 7:52 PM CDT
Moon 10:47 PM CDT (10/24) 12:35 PM CDT (10/24)
Length of Visible Light 11h 42m
Length of Day
10h 47m
Waning Gibbous, 71% of the Moon is Illuminated
Oct 24
Waning Gibbous
Oct 26
Last Quarter
Nov 3
New
Nov 9
First Quarter
Nov 17
Full

Hourly Weather History & Observations

Time (CDT) Temp. Windchill Dew Point Humidity Pressure Visibility Wind Dir Wind Speed Gust Speed Precip Events Conditions
12:52 AM 39.9 °F - 36.0 °F 86% 30.22 in - Calm Calm - N/A   Unknown
1:52 AM 41.0 °F 39.0 °F 35.1 °F 79% 30.22 in - Variable 3.5 mph - N/A   Unknown
2:52 AM 37.9 °F - 34.0 °F 86% 30.24 in - Calm Calm - N/A   Unknown
3:52 AM 39.0 °F - 35.1 °F 86% 30.25 in - Calm Calm - N/A   Unknown
4:52 AM 39.9 °F 37.8 °F 28.9 °F 65% 30.27 in - NNW 3.5 mph - N/A   Unknown
5:52 AM 37.0 °F - 28.9 °F 73% 30.31 in - Calm Calm - N/A   Unknown
6:52 AM 34.0 °F - 26.1 °F 73% 30.33 in - Calm Calm - N/A   Unknown
7:52 AM 36.0 °F 31.1 °F 27.0 °F 70% 30.34 in - NW 5.8 mph - N/A   Unknown
8:52 AM 39.0 °F 33.4 °F 28.0 °F 65% 30.37 in - NNW 8.1 mph - N/A   Unknown
9:52 AM 41.0 °F 36.4 °F 28.0 °F 60% 30.39 in - Variable 6.9 mph - N/A   Unknown
10:52 AM 44.1 °F 40.1 °F 28.0 °F 53% 30.40 in - Variable 6.9 mph - N/A   Unknown
11:52 AM 46.9 °F - 28.0 °F 48% 30.40 in - North - - N/A   Unknown
12:52 PM 46.0 °F 41.4 °F 25.0 °F 44% 30.40 in - NNW 9.2 mph - N/A   Unknown
1:52 PM 48.0 °F - 25.0 °F 41% 30.39 in - NNW 8.1 mph 20.7 mph N/A   Unknown
2:52 PM 48.9 °F - 24.1 °F 38% 30.38 in - WNW 9.2 mph 19.6 mph N/A   Unknown
3:52 PM 50.0 °F - 25.0 °F 38% 30.39 in - Variable 5.8 mph - N/A   Unknown
4:52 PM 48.0 °F - 24.1 °F 39% 30.39 in - North 8.1 mph - N/A   Unknown
5:52 PM 46.9 °F - 24.1 °F 41% 30.40 in - North 6.9 mph - N/A   Unknown
6:52 PM 39.9 °F - 27.0 °F 60% 30.42 in - Calm Calm - N/A   Unknown
7:52 PM 35.1 °F - 27.0 °F 72% 30.43 in - Calm Calm - N/A   Unknown
8:52 PM 32.0 °F - 26.1 °F 79% 30.44 in - Calm Calm - N/A   Unknown
9:52 PM 30.0 °F - 24.1 °F 79% 30.45 in - Calm Calm - N/A   Unknown
10:52 PM 28.9 °F - 24.1 °F 82% 30.47 in - Calm Calm - N/A   Unknown
11:52 PM 27.0 °F - 24.1 °F 89% 30.47 in - Calm Calm - N/A   Unknown